Location: Chena
(64.8152°N, 147.9227°W)
Time: 21:05:40
(UTC+00:00)

Vanguard 2 - Pass Details

Date: 09 March 2021
Orbit: 552 x 2938 km, 32.9° (Epoch: 11 April)

Event Time Altitude Azimuth Distance (km) Brightness Sun altitude
Rises 13:44:13 0° 221° (SW) 5,503 - -17.9°
Exits shadow 13:49:15 - 204° (SSW) 4,998 11.2 -17.4°
Reaches altitude 10° 13:49:58 10° 201° (SSW) 4,956 11.2 -17.4°
Maximum altitude 13:56:51 15° 173° (S) 4,950 11.4 -16.7°
Drops below altitude 10° 14:04:33 10° 145° (SE) 5,668 12.0 -16.0°
Sets 14:12:08 0° 127° (SE) 6,791 12.8 -15.3°
